Weather reports worldwide

Advertisment
Capo Carbonara, Italy (16564): temperature & dewpoint: 15.05.2019 17:00:00 - 21.05.2019 17:00:00 (CEST)Capo Carbonara, Italy (16564): wind speed: 15.05.2019 17:00:00 - 21.05.2019 17:00:00 (CEST)Capo Carbonara, Italy (16564): wind direction: 15.05.2019 17:00:00 - 21.05.2019 17:00:00 (CEST)Capo Carbonara, Italy (16564): reduced air pressure: 15.05.2019 17:00:00 - 21.05.2019 17:00:00 (CEST)Capo Carbonara, Italy (16564): visibility: 15.05.2019 17:00:00 - 21.05.2019 17:00:00 (CEST)
Date & Time tt [°C] td [°C] ff [km/h] ff [kn] dd ppp [hPa] vv [km]
21.05.2019 17:00:00 20,0 15,4 21 11 SW 1015,5 20
21.05.2019 16:00:00 20,0 16,0 26 14 SSE - 10
21.05.2019 15:00:00 20,0 16,0 24 13 SE - 10
21.05.2019 14:00:00 20,2 15,9 29 16 NE 1015,4 20
21.05.2019 13:00:00 20,0 16,0 22 12 SW - 10
21.05.2019 12:00:00 18,0 14,0 26 14 WSW - 10
21.05.2019 11:00:00 17,4 13,1 24 13 SW 1015,3 20
21.05.2019 10:00:00 16,0 12,0 21 11 SW - 10
21.05.2019 09:00:00 15,0 11,0 18 10 SW - 10
21.05.2019 08:00:00 15,0 11,1 15 8 SW 1014,7 20
21.05.2019 07:00:00 15,0 11,0 11 6 W - 10
21.05.2019 06:00:00 15,0 11,0 13 7 WSW - 10
21.05.2019 05:00:00 15,0 11,2 28 15 SSE 1014,3 20
21.05.2019 04:00:00 15,0 11,0 26 14 WSW - 10
21.05.2019 03:00:00 15,0 12,0 28 15 WSW - 10
21.05.2019 02:00:00 16,0 12,3 34 18 W 1014,1 20
21.05.2019 01:00:00 16,0 12,0 29 16 W - 10
21.05.2019 00:00:00 - - - - - - -
20.05.2019 23:00:00 16,2 13,0 44 24 W 1013,8 20
20.05.2019 22:00:00 17,0 13,0 48 26 W - 10
20.05.2019 21:00:00 17,0 13,0 54 29 W - 10
20.05.2019 20:00:00 18,0 14,1 35 19 WSW 1012,5 20
20.05.2019 19:00:00 18,0 14,0 46 25 W - 10
20.05.2019 18:00:00 18,0 13,0 54 29 W - 10
20.05.2019 17:00:00 18,2 13,7 55 30 W 1011,6 20
20.05.2019 16:00:00 19,0 14,0 65 35 W - 10
20.05.2019 15:00:00 19,0 13,0 70 38 WSW - 10
20.05.2019 14:00:00 18,2 12,2 74 40 W 1010,2 20
20.05.2019 13:00:00 17,0 13,0 68 37 W - 10
20.05.2019 12:00:00 16,0 14,0 57 31 WSW - 10
20.05.2019 11:00:00 15,6 11,6 42 23 W 1010,3 20
20.05.2019 10:00:00 15,0 11,0 44 24 W - 10
20.05.2019 09:00:00 14,0 10,0 37 20 W - 10
20.05.2019 08:00:00 13,6 9,7 26 14 W 1009,9 20
20.05.2019 07:00:00 14,0 10,0 31 17 WSW - 10
20.05.2019 06:00:00 14,0 10,0 42 23 WSW - 10
20.05.2019 05:00:00 14,0 10,1 59 32 SW 1009,2 10
20.05.2019 04:00:00 15,0 11,0 29 16 WSW - 10
20.05.2019 03:00:00 15,0 11,0 29 16 WSW - 10
20.05.2019 02:00:00 15,2 11,8 28 15 W 1009,4 10
20.05.2019 01:00:00 15,0 11,0 26 14 W - 10
20.05.2019 00:00:00 15,0 12,0 29 16 W - 10
19.05.2019 23:00:00 16,0 11,2 29 16 WNW 1009,6 20
19.05.2019 22:00:00 17,0 12,0 34 18 W - 10
19.05.2019 21:00:00 17,0 11,0 34 18 W - 10
19.05.2019 20:00:00 17,4 13,4 26 14 WSW 1008,3 20
19.05.2019 19:00:00 18,0 14,0 31 17 SW - 10
19.05.2019 18:00:00 16,0 13,0 44 24 WSW - 10
19.05.2019 17:00:00 18,8 14,1 44 24 WSW 1007,9 10
19.05.2019 16:00:00 19,0 14,0 44 24 SW - 10
19.05.2019 15:00:00 19,0 15,0 37 20 SW - 10
19.05.2019 14:00:00 18,4 12,6 35 19 SW 1007,8 20
19.05.2019 13:00:00 19,0 14,0 31 17 SW - 10
19.05.2019 12:00:00 17,0 12,0 26 14 WSW - 10
19.05.2019 11:00:00 16,4 11,3 42 23 W 1007,7 20
19.05.2019 10:00:00 15,0 11,0 41 22 W - 10
19.05.2019 09:00:00 14,0 10,0 37 20 W - 10
19.05.2019 08:00:00 13,8 9,7 26 14 WNW 1007,4 20
19.05.2019 07:00:00 14,0 10,0 29 16 WNW - 10
19.05.2019 06:00:00 14,0 10,0 29 16 W - 10
19.05.2019 05:00:00 14,0 10,6 35 19 W 1006,7 20
19.05.2019 04:00:00 14,0 10,0 22 12 W - 10
19.05.2019 03:00:00 15,0 11,0 28 15 NW - 10
19.05.2019 02:00:00 14,8 11,1 26 14 WNW 1007,5 20
19.05.2019 01:00:00 15,0 11,0 37 20 W - 10
19.05.2019 00:00:00 15,0 11,0 24 13 W - 10
18.05.2019 23:00:00 15,2 11,6 26 14 WNW 1008,1 10
18.05.2019 22:00:00 16,0 12,0 29 16 W - 10
18.05.2019 21:00:00 17,0 12,0 39 21 W - 10
18.05.2019 20:00:00 18,4 12,2 34 18 WNW 1006,5 20
18.05.2019 19:00:00 18,0 12,0 59 32 W - 10
18.05.2019 18:00:00 19,0 12,0 55 30 W - 10
18.05.2019 17:00:00 19,8 12,3 55 30 W 1004,5 20
18.05.2019 16:00:00 19,0 15,0 50 27 SW - 10
18.05.2019 15:00:00 20,0 15,0 31 17 SSW - 10
18.05.2019 14:00:00 19,8 14,1 31 17 WSW 1005,1 20
18.05.2019 13:00:00 20,0 13,0 39 21 WSW - 10
18.05.2019 12:00:00 18,0 14,0 37 20 WSW - 10
18.05.2019 11:00:00 17,4 12,7 44 24 WSW 1004,7 10
18.05.2019 10:00:00 16,0 12,0 41 22 W - 10
18.05.2019 09:00:00 15,0 12,0 57 31 W - 10
18.05.2019 08:00:00 15,2 12,2 57 31 WSW 1002,4 10
18.05.2019 07:00:00 15,0 12,0 63 34 WSW - 10
18.05.2019 06:00:00 15,0 12,0 59 32 SW - 10
18.05.2019 05:00:00 15,8 12,7 61 33 SW 1002,5 10
18.05.2019 04:00:00 16,0 13,0 59 32 SW - 10
18.05.2019 03:00:00 16,0 13,0 59 32 SW - 10
18.05.2019 02:00:00 15,8 12,7 57 31 SW 1003,6 10
18.05.2019 01:00:00 16,0 12,0 55 30 SW - 10
18.05.2019 00:00:00 16,0 13,0 65 35 SW - 10
17.05.2019 23:00:00 16,0 12,7 67 36 SW 1003,9 10
17.05.2019 22:00:00 16,0 13,0 54 29 ENE - 10
17.05.2019 21:00:00 16,0 13,0 11 6 SSW - 10
17.05.2019 20:00:00 16,4 13,4 8 4 NE 1003,9 10
17.05.2019 19:00:00 17,0 14,0 21 11 ENE - 10
17.05.2019 18:00:00 17,0 14,0 22 12 ENE - 10
17.05.2019 17:00:00 17,8 14,9 21 11 E 1004,7 10
17.05.2019 16:00:00 18,0 15,0 26 14 E - 10
17.05.2019 15:00:00 18,0 15,0 29 16 E - 10
17.05.2019 14:00:00 17,6 14,5 31 17 E 1006,7 10
17.05.2019 13:00:00 19,0 16,0 35 19 E - 10
17.05.2019 12:00:00 19,0 15,0 34 18 E - 10
17.05.2019 11:00:00 17,8 14,8 35 19 E 1007,5 20
17.05.2019 10:00:00 16,0 13,0 31 17 E - 10
17.05.2019 09:00:00 15,0 12,0 28 15 E - 10
17.05.2019 08:00:00 15,0 11,8 31 17 ESE 1008,6 20
17.05.2019 07:00:00 14,0 11,0 29 16 ESE - 10
17.05.2019 06:00:00 13,0 10,0 11 6 ENE - 10
17.05.2019 05:00:00 13,2 10,4 11 6 ENE 1009,1 20
17.05.2019 04:00:00 13,0 11,0 11 6 ENE - 10
17.05.2019 03:00:00 14,0 11,0 5 3 S - 10
17.05.2019 02:00:00 14,0 11,2 11 6 S 1010,7 20
17.05.2019 01:00:00 14,0 12,0 11 6 S - 10
17.05.2019 00:00:00 15,0 12,0 16 9 S - 10
16.05.2019 23:00:00 14,8 12,1 16 9 S 1011,8 20
16.05.2019 22:00:00 15,0 12,0 16 9 S - 10
16.05.2019 21:00:00 15,0 13,0 16 9 S - 10
16.05.2019 20:00:00 16,8 13,7 16 9 S 1011,4 20
16.05.2019 19:00:00 18,0 13,0 16 9 SSW - 10
16.05.2019 18:00:00 19,0 14,0 13 7 WNW - 10
16.05.2019 17:00:00 18,8 14,1 11 6 ESE 1011,4 20
16.05.2019 16:00:00 18,0 14,0 15 8 E - 10
16.05.2019 15:00:00 19,0 13,0 26 14 E - 10
16.05.2019 14:00:00 18,4 13,1 24 13 E 1011,4 20
16.05.2019 13:00:00 18,0 12,0 15 8 SW - 10
16.05.2019 12:00:00 17,0 11,0 34 18 NE - 10
16.05.2019 11:00:00 16,6 10,7 18 10 NNE 1010,9 20
16.05.2019 10:00:00 14,0 9,0 31 17 NNE - 10
16.05.2019 09:00:00 14,0 9,0 9 5 N - 10
16.05.2019 08:00:00 11,4 8,3 34 18 W 1009,9 20
16.05.2019 07:00:00 - - - - - - -
16.05.2019 06:00:00 10,0 7,0 42 23 W - 10
16.05.2019 05:00:00 10,6 6,8 31 17 W 1009,2 10
16.05.2019 04:00:00 11,0 7,0 31 17 W - 10
16.05.2019 03:00:00 11,0 5,0 26 14 W - 10
16.05.2019 02:00:00 10,6 5,6 15 8 NW 1009,4 20
16.05.2019 01:00:00 10,0 6,0 24 13 NNW - 10
16.05.2019 00:00:00 10,0 7,0 28 15 NNE - 10
15.05.2019 23:00:00 10,2 7,3 31 17 NNE 1009,0 10
15.05.2019 22:00:00 10,0 7,0 31 17 NE - 10
15.05.2019 21:00:00 10,0 8,0 41 22 NE - 10
15.05.2019 20:00:00 10,8 7,9 42 23 NE 1007,7 10
15.05.2019 19:00:00 12,0 9,0 39 21 NE - 10
15.05.2019 18:00:00 12,0 9,0 28 15 NE - 10
15.05.2019 17:00:00 17,2 14,1 21 11 N 1007,6 20

tt = temperature
td = dewpoint
ff = wind speed
dd = wind direction
ppp = reduced air pressure
vv = visibility

Next stations